Theta_e
278 278 278 277 277 277 277 277 277 277 277 277 277 277 277 277 277 278 278 278 278 278 278 279 279 279 279 280 280 280 281 281 281 282 282 283 283 284 284 284 285 285 285 285 285 285 285 286 286 286 286 286 286 287 288 290 292 294 296 298 300 300 300 300 299 300 303 305 306 306 306 306 306 306 307 308 309 308 309 310 310 310 309 310 310
277 277 277 277 277 276 276 276 276 276 276 276 276 276 276 276 277 277 277 277 277 277 278 278 278 278 279 279 279 279 279 280 280 281 281 281 282 282 283 283 284 284 284 284 284 285 285 285 285 285 286 286 286 286 286 286 287 289 291 293 295 297 298 298 298 298 300 303 305 305 306 306 306 306 306 307 308 308 308 309 309 309 310 310 310
277 276 276 276 276 276 276 276 276 276 276 276 276 276 276 276 276 276 276 277 277 277 277 277 277 277 278 278 278 278 278 279 279 279 280 280 281 281 281 282 282 282 283 283 283 284 284 284 284 285 285 285 285 286 286 286 286 286 287 288 289 292 294 295 295 296 297 300 302 303 304 305 306 306 306 307 307 308 309 309 308 309 309 310 310
276 276 275 275 275 275 275 275 275 275 275 275 275 275 276 276 276 276 276 276 276 276 277 277 277 277 277 277 277 278 278 278 278 278 279 279 279 280 280 280 281 281 281 281 282 282 282 283 283 283 284 284 285 285 285 285 285 286 286 286 286 287 289 290 291 292 293 296 300 302 302 303 305 305 306 307 308 308 309 310 310 310 309 309 309
275 275 275 275 275 275 275 275 275 275 275 275 275 275 275 275 275 275 275 276 276 276 276 276 276 276 277 277 277 277 277 277 277 278 278 278 278 278 279 279 279 280 280 280 280 280 281 281 282 282 282 283 283 284 284 284 284 285 285 285 285 286 286 287 287 288 288 290 294 299 301 301 303 304 305 306 307 308 309 310 311 311 310 310 310
275 275 274 274 274 274 274 274 274 274 274 274 274 274 275 275 275 275 275 275 275 275 275 275 276 276 276 276 276 276 276 276 277 277 277 277 277 277 278 278 278 279 279 279 279 279 280 280 280 280 281 281 282 282 283 283 283 284 284 284 285 285 286 286 286 286 286 286 288 293 298 300 301 302 303 304 305 306 308 309 309 309 310 310 311
274 274 274 274 274 274 274 274 274 274 274 274 274 274 274 274 274 274 275 275 275 275 275 275 275 275 275 275 276 276 276 276 276 276 276 276 277 277 277 277 278 278 278 278 278 278 279 279 279 279 279 280 280 280 281 281 282 282 282 283 283 284 284 285 285 285 285 285 286 287 292 297 299 300 301 302 302 303 305 306 308 308 308 309 309
274 274 274 274 274 274 273 273 273 273 273 273 273 273 273 273 274 274 274 274 274 274 274 274 274 274 274 275 275 275 275 275 275 275 276 276 276 276 276 277 277 277 277 278 278 278 278 278 278 278 278 279 279 279 279 280 280 281 281 281 282 282 283 284 284 285 285 285 285 286 287 291 295 298 299 300 300 301 302 301 303 305 306 307 307
274 274 274 273 273 273 273 273 273 273 273 273 273 273 273 273 273 273 273 273 273 273 274 274 274 274 274 274 274 274 274 275 275 275 275 275 275 275 276 276 276 276 277 277 277 277 277 277 278 278 278 278 278 278 278 278 279 279 280 280 280 281 281 282 283 283 284 284 285 285 286 287 289 292 296 298 298 298 299 299 300 302 303 305 305
274 273 273 273 273 273 273 273 272 272 272 272 272 272 272 272 272 272 272 272 273 273 273 273 273 273 273 274 274 274 274 274 274 274 274 274 274 274 275 275 276 276 276 276 277 277 277 277 277 277 277 277 278 278 278 278 278 278 278 279 279 279 280 281 281 281 282 282 283 284 285 286 287 287 289 293 295 296 297 297 298 299 301 302 303
273 273 273 273 273 272 272 272 272 272 271 271 271 271 271 271 271 272 272 272 272 272 272 272 272 272 273 273 273 273 273 273 273 273 273 273 273 273 274 274 275 275 275 276 276 276 277 277 277 277 277 277 277 278 278 278 278 278 278 278 278 278 278 279 280 280 280 281 282 282 283 284 285 285 285 287 291 294 295 295 296 297 298 299 300
273 273 272 272 272 272 272 271 271 271 271 271 271 271 271 270 271 271 271 271 271 271 271 272 272 272 272 272 273 273 273 273 273 273 273 273 273 272 273 274 274 275 275 275 276 276 276 276 277 277 277 277 277 277 277 278 278 278 278 278 278 278 278 278 278 279 279 280 280 281 282 282 283 284 284 284 286 290 293 294 295 295 295 296 297
272 272 272 272 272 271 271 271 270 270 270 270 270 270 270 270 270 270 270 270 270 271 271 271 271 271 271 272 272 272 272 272 272 272 272 272 272 272 272 273 274 274 274 275 275 275 275 276 276 276 276 276 277 277 277 277 277 277 278 278 278 278 278 278 278 278 279 279 279 280 281 281 281 282 283 283 283 285 288 292 294 293 294 295 296
272 272 272 271 271 270 270 270 270 270 269 269 269 269 269 269 269 269 269 270 270 270 270 270 270 271 271 271 272 272 272 272 272 272 272 272 271 271 272 273 273 273 274 274 274 274 274 274 275 275 275 276 276 276 276 276 276 276 277 277 277 278 278 278 279 279 279 279 279 279 280 280 281 282 282 283 283 283 285 288 291 292 292 294 295
271 271 271 271 270 270 270 269 269 269 269 269 269 269 269 269 269 269 269 269 269 269 270 270 270 270 270 270 271 271 271 271 271 271 271 271 270 271 271 272 272 273 273 273 273 273 274 274 274 274 274 275 275 275 275 274 274 274 275 276 276 277 277 278 278 278 278 278 278 278 279 280 281 282 283 283 284 284 284 285 287 290 291 293 294
271 271 270 270 270 269 269 269 269 269 268 268 268 268 268 268 268 268 268 269 269 269 269 269 269 269 270 270 270 271 271 271 271 271 270 270 270 270 271 271 271 272 272 272 272 273 273 273 273 273 273 274 274 274 273 273 273 273 273 274 275 276 276 277 277 277 277 277 277 278 278 278 280 281 282 283 284 284 284 284 285 287 290 291 293
271 270 270 269 269 269 269 269 269 268 268 268 268 268 268 268 268 268 268 268 268 268 268 268 269 269 269 269 269 270 270 270 270 270 270 270 269 269 270 270 270 271 271 271 272 272 272 272 272 272 273 273 273 273 272 272 272 272 272 273 274 275 275 276 276 277 277 276 276 277 277 278 278 279 280 281 282 282 283 283 284 285 287 289 290
270 270 269 269 269 268 268 268 268 268 268 268 268 268 267 267 267 267 268 268 268 268 268 268 268 268 268 268 269 269 270 270 270 270 269 269 269 269 269 269 269 270 270 270 270 270 271 271 270 270 271 272 271 270 270 271 271 271 271 272 273 273 274 275 275 276 276 276 276 277 277 277 278 278 278 279 279 280 281 282 283 284 285 287 289
270 269 269 269 268 268 268 268 268 268 268 267 267 267 267 267 267 267 267 267 267 267 267 268 268 268 268 268 268 268 269 269 269 269 269 269 268 268 268 268 268 268 268 268 268 268 268 268 269 269 269 269 269 269 269 270 270 270 271 271 272 272 273 274 274 275 275 275 276 276 277 277 277 278 278 279 279 279 280 281 282 283 284 286 287
269 269 269 268 268 268 268 268 267 267 267 267 267 267 267 267 267 267 267 267 267 267 267 267 267 267 267 267 267 267 268 268 268 268 268 268 268 267 267 266 267 267 267 266 267 266 267 267 267 268 268 268 268 269 269 270 270 271 272 272 272 273 273 274 274 275 275 275 276 275 276 277 277 277 278 278 278 279 279 280 281 282 284 285 286
269 269 268 268 268 268 267 267 267 267 267 267 267 267 266 266 266 266 266 266 266 266 266 267 267 267 267 267 267 267 267 267 267 268 268 268 268 267 266 266 266 266 266 266 266 267 267 266 266 267 268 268 269 269 270 271 271 272 272 273 273 273 274 274 274 274 275 275 275 275 275 276 276 276 276 277 277 278 278 279 279 280 282 284 285
269 269 268 268 268 267 267 267 267 267 267 266 267 266 266 266 266 266 266 266 266 266 266 266 266 267 267 266 266 266 266 266 267 267 268 268 268 267 266 266 266 266 266 267 267 266 266 266 267 268 268 268 269 269 270 271 271 272 272 272 272 273 273 273 273 274 274 274 274 273 274 275 275 275 276 276 276 276 277 278 279 279 280 282 284
269 268 268 268 267 267 267 267 266 266 266 266 266 266 266 266 266 265 265 265 265 266 266 266 266 266 266 266 266 266 266 266 266 267 268 268 267 267 266 266 266 266 266 266 266 266 267 267 268 268 268 268 269 270 270 270 271 271 271 271 271 272 272 272 272 272 272 272 272 272 273 274 274 275 276 276 276 276 277 278 278 278 278 280 282
268 268 268 268 267 267 267 266 266 266 266 266 266 266 266 266 265 265 265 265 265 265 265 265 265 265 266 266 266 266 266 266 267 267 267 267 266 266 266 265 265 266 266 266 266 266 267 267 267 267 268 268 269 269 269 269 270 270 270 270 271 271 271 271 271 271 271 271 272 272 273 274 274 274 275 275 275 276 277 277 277 277 278 278 281
268 268 267 267 267 267 267 266 266 266 266 266 266 265 265 265 265 265 265 264 265 265 265 265 265 265 265 265 265 265 266 266 267 267 266 265 265 265 265 264 264 265 265 265 265 265 266 266 266 267 267 267 268 268 268 269 269 269 270 270 270 271 271 271 271 271 271 271 272 272 273 274 274 274 274 275 275 276 276 276 276 276 277 278 280
268 268 267 267 266 266 266 266 266 266 265 265 265 265 265 265 265 265 265 264 264 264 264 265 264 264 264 264 265 265 266 266 266 265 264 264 264 264 263 263 264 264 265 265 265 265 265 265 266 266 267 267 267 268 268 269 269 270 270 270 270 271 271 270 270 270 270 270 271 271 272 272 273 273 274 274 275 275 275 275 275 275 276 277 280
268 268 267 267 266 266 266 266 266 266 265 265 265 265 265 265 265 265 264 264 264 264 264 264 264 264 264 264 265 265 264 264 264 264 263 263 263 263 263 263 264 264 264 264 264 264 265 265 266 266 266 267 268 268 268 269 269 269 270 270 269 269 269 269 269 269 270 270 270 270 271 271 272 272 273 274 274 274 275 275 275 275 275 276 278
267 267 267 267 266 266 265 265 266 266 265 265 265 265 265 264 264 264 264 263 264 264 264 264 264 264 264 264 264 262 262 262 263 263 263 262 262 263 263 263 263 264 264 264 264 264 265 265 266 266 267 267 268 268 268 269 269 269 269 269 269 269 268 268 268 269 269 270 270 270 270 271 271 272 273 274 274 274 275 275 275 276 276 275 276
267 267 267 266 266 265 265 265 265 265 265 265 265 265 264 264 264 264 264 263 263 263 263 264 264 263 262 261 261 260 261 262 263 262 262 262 263 263 263 263 263 264 264 263 264 265 265 265 266 266 266 267 267 268 268 268 269 269 270 269 269 269 269 269 268 268 269 270 271 271 271 272 272 272 273 273 273 274 275 276 276 276 276 275 275
267 267 267 266 266 265 265 265 265 265 265 265 265 265 264 264 264 264 264 263 263 263 263 263 262 261 260 259 260 260 261 262 262 262 262 262 263 263 263 263 263 263 263 263 264 264 264 264 265 265 265 266 266 267 267 267 268 269 269 269 269 269 269 269 269 268 269 269 270 271 271 272 273 273 273 273 274 274 275 275 275 275 275 275 275
267 267 266 266 265 265 265 265 265 264 264 264 264 265 265 264 264 263 263 263 263 263 262 262 262 261 260 260 261 262 262 262 262 262 262 262 263 263 263 262 263 263 262 263 264 264 263 264 264 264 265 265 265 266 266 266 266 267 268 268 268 268 268 269 269 268 269 269 269 270 271 271 272 273 274 274 274 274 274 274 275 275 275 275 275
267 267 266 265 265 265 265 264 264 264 264 264 264 264 264 264 264 264 263 263 263 263 262 262 262 261 261 261 261 262 262 262 262 262 262 262 263 262 262 262 263 263 263 263 263 263 263 263 264 264 264 265 265 264 264 264 265 265 265 266 267 267 267 268 268 268 268 269 269 270 270 271 272 273 273 274 274 274 274 274 275 275 274 275 275
266 266 266 265 265 265 264 264 264 264 264 264 263 263 263 263 264 264 264 263 263 262 262 262 261 261 261 261 261 262 262 262 262 262 262 263 262 262 261 262 263 263 262 262 262 263 263 263 263 263 264 264 264 264 264 264 264 264 264 265 266 266 267 267 267 267 268 268 269 269 270 270 271 272 272 272 273 273 274 274 274 275 275 275 275
266 266 265 265 265 264 264 264 264 264 263 263 263 263 263 263 263 263 263 264 264 263 263 262 261 261 261 261 261 261 261 262 262 262 262 262 262 261 262 263 263 262 262 262 262 263 263 263 263 263 263 263 263 263 263 263 263 263 264 264 265 265 266 266 266 267 267 268 268 269 269 270 270 271 271 272 272 273 273 274 274 275 275 275 275
266 265 265 265 264 264 264 264 263 263 263 263 263 263 262 262 262 262 262 262 263 263 263 262 262 261 261 261 261 261 261 261 261 262 262 262 262 261 262 263 263 263 263 263 262 262 262 262 262 262 263 263 263 263 263 263 263 263 263 264 264 265 265 265 266 266 267 267 268 269 269 269 270 270 271 271 272 272 273 273 274 274 275 275 275
265 265 265 264 264 264 264 264 263 263 263 263 262 262 262 262 261 261 261 261 261 262 262 262 262 261 261 260 260 261 261 261 261 261 261 261 261 261 262 262 262 263 263 262 262 262 262 262 262 262 262 262 262 262 262 263 263 263 263 263 263 264 264 265 265 266 266 266 267 268 268 269 270 270 271 272 272 272 273 273 273 274 274 274 275
265 265 264 264 264 263 263 263 263 263 263 262 262 262 262 261 261 261 260 260 260 261 261 261 261 261 261 261 261 261 261 261 261 261 261 261 261 261 261 261 261 262 262 262 262 262 262 262 261 262 262 262 262 262 262 262 263 263 263 262 263 263 263 264 264 265 265 266 266 267 268 269 269 270 270 271 272 272 273 273 273 273 273 273 274
265 265 264 264 263 263 263 263 263 262 262 262 262 262 261 261 261 260 260 260 260 260 260 260 260 261 260 260 260 261 261 261 261 261 261 261 261 261 261 261 261 261 261 261 261 261 262 262 261 261 262 262 262 262 262 262 262 262 262 262 262 263 263 263 264 264 265 265 266 267 267 268 269 270 270 270 271 272 272 272 272 272 272 273 273
265 264 264 263 263 263 263 263 262 262 262 262 262 261 261 261 260 260 260 260 260 260 260 260 260 260 260 260 260 260 260 261 261 261 261 261 261 261 261 261 261 261 261 261 261 261 261 261 261 261 261 261 261 261 261 262 262 262 262 262 262 262 263 263 263 264 264 265 266 267 267 268 269 269 270 270 270 271 271 271 272 272 272 272 272
264 264 264 263 263 263 263 262 262 262 262 261 261 261 261 260 260 260 260 260 260 260 260 260 260 260 260 259 259 259 259 260 260 260 260 260 260 260 260 260 261 261 261 261 261 261 261 261 261 261 261 261 261 261 261 261 262 262 262 262 262 262 262 262 263 263 264 264 265 266 267 268 268 269 269 270 270 270 270 270 271 271 271 271 271
264 264 264 263 263 263 263 262 262 262 261 261 261 261 260 260 260 260 260 260 260 260 260 260 260 260 260 259 259 259 259 259 259 259 259 259 259 260 260 260 260 260 260 261 261 261 261 261 261 261 261 261 261 261 261 261 261 261 261 262 262 262 262 262 262 263 263 264 265 265 266 267 268 268 269 269 269 269 269 270 270 270 271 270 271
264 264 264 263 263 263 262 262 262 261 261 261 261 261 260 260 260 260 260 260 260 259 259 260 260 260 259 259 259 259 259 259 259 259 259 259 259 259 259 260 260 260 260 260 260 261 261 261 261 261 261 261 261 261 261 261 261 261 261 262 262 262 262 262 262 263 263 264 264 265 266 267 267 268 268 268 269 269 269 269 269 270 270 270 270
264 264 263 263 263 263 262 262 261 261 261 261 261 261 260 260 260 260 260 260 260 259 259 260 260 260 260 259 259 259 259 259 259 259 259 259 259 259 259 259 260 260 260 260 260 260 261 261 261 261 261 261 261 261 260 260 260 260 261 262 262 262 262 263 263 263 263 264 264 265 265 266 267 267 267 268 268 268 268 268 268 269 269 269 270
264 264 263 263 263 262 262 262 261 261 261 261 261 261 260 260 260 260 260 260 260 259 259 259 259 259 260 259 259 259 259 259 259 259 259 259 259 259 259 259 259 260 260 260 260 260 260 261 261 261 261 261 261 261 260 260 260 260 261 261 262 262 263 263 263 263 263 264 264 265 265 266 266 266 267 267 267 267 267 267 268 268 268 269 269
264 264 263 263 263 262 262 262 261 261 261 261 261 261 260 260 260 260 260 260 260 259 259 259 259 259 259 259 259 259 259 259 259 259 259 259 259 259 259 259 259 260 260 260 260 260 260 261 261 261 261 261 261 261 261 261 261 261 261 261 262 262 262 263 263 263 263 263 264 265 265 265 265 266 266 266 266 266 267 267 267 267 268 268 268
264 263 263 263 262 262 262 261 261 261 261 261 261 261 260 260 260 260 260 260 260 259 259 259 259 259 259 259 259 259 259 259 259 259 259 259 259 258 259 259 259 259 260 260 260 260 260 260 261 261 261 261 261 261 261 261 261 261 261 262 262 262 262 263 263 263 263 264 264 265 265 265 265 265 266 266 266 266 266 267 267 267 267 267 268
264 263 263 263 262 262 262 261 261 261 261 261 261 261 260 260 260 260 260 260 260 260 260 259 259 259 259 259 259 259 259 259 259 259 259 259 258 258 258 258 259 259 259 260 260 260 260 260 261 261 261 261 261 261 261 261 261 261 262 262 262 262 262 263 263 264 264 264 265 265 265 265 265 266 266 266 266 266 267 267 267 267 267 267 267
264 263 263 263 262 262 262 262 261 261 261 261 261 260 260 260 260 260 260 260 260 260 260 260 259 259 259 259 259 259 259 259 258 258 258 258 258 258 258 258 258 259 259 259 260 260 260 260 261 261 261 261 261 261 261 262 261 261 262 262 263 262 262 263 263 264 264 264 265 265 265 266 266 266 266 267 267 267 267 267 267 267 267 267 267
263 263 263 263 262 262 262 262 261 261 261 261 261 260 260 260 260 260 260 260 260 260 260 259 259 259 259 259 259 259 258 258 258 258 258 258 258 258 258 258 258 258 259 259 260 260 260 260 260 261 261 261 261 261 262 262 261 262 262 263 263 262 262 263 263 264 264 264 265 265 265 265 266 266 267 267 267 267 267 267 267 267 267 267 268
263 263 263 262 262 262 262 261 261 261 261 261 261 260 260 260 260 260 260 260 260 260 260 259 259 259 259 259 258 258 258 258 258 258 258 258 258 258 258 258 258 258 259 259 259 259 260 260 260 260 261 261 261 261 261 262 262 262 262 262 262 262 263 263 263 264 264 264 264 264 265 265 265 266 266 266 267 267 267 267 267 267 268 268 269
263 263 263 262 262 262 262 261 261 261 261 261 260 260 260 260 260 260 260 260 260 260 259 259 259 259 259 258 258 258 258 258 258 258 258 258 258 258 258 258 258 258 258 259 259 259 259 260 260 260 260 261 261 261 262 262 262 262 262 262 262 263 263 263 263 264 264 264 264 264 265 265 265 266 266 266 266 267 267 267 267 268 268 268 269
Wind_Speed
26 27 27 27 27 26 26 26 26 27 27 27 28 28 28 29 29 29 29 29 29 29 29 29 29 29 28 28 28 27 27 27 26 26 25 25 24 23 23 22 22 21 21 20 19 18 17 17 16 16 16 16 16 16 16 16 17 18 18 19 19 19 20 20 23 27 27 26 27 28 28 31 32 30 29 27 26 26 25 25 24 23 23 22 21
26 27 27 27 26 26 26 27 27 27 27 28 28 28 28 29 29 29 29 29 29 29 29 29 29 30 29 29 29 28 28 28 28 27 27 26 26 25 25 24 24 23 23 22 22 21 21 20 19 18 18 18 18 18 18 17 17 17 17 19 20 20 21 22 23 27 27 25 25 26 28 30 32 31 30 30 28 27 26 26 25 24 24 23 22
25 25 25 24 25 25 26 27 28 28 29 29 29 29 30 30 30 30 30 30 30 30 30 30 29 29 29 29 29 29 29 28 28 28 28 28 28 27 26 26 25 25 25 24 24 24 23 23 22 22 21 20 20 20 20 20 19 19 18 18 19 19 20 22 23 25 28 27 24 24 25 27 29 30 30 30 29 29 28 27 26 25 25 25 24
23 23 23 23 24 25 26 27 29 30 30 31 31 31 31 31 31 31 31 31 30 30 30 30 30 30 29 29 29 29 29 28 28 28 28 28 28 28 28 27 26 26 25 25 25 25 25 25 24 24 24 23 22 22 22 22 21 21 20 19 20 19 19 20 22 23 26 28 26 24 24 25 26 27 28 29 28 28 29 27 27 27 26 25 26
22 22 23 23 25 26 28 30 31 32 33 33 33 33 33 33 33 33 32 32 32 31 31 31 30 30 30 29 29 28 28 28 28 28 28 28 28 28 28 28 27 27 26 25 25 25 26 26 25 25 26 25 25 24 24 24 24 23 23 22 22 22 21 20 21 23 25 27 28 25 24 24 25 25 26 27 28 27 27 26 26 27 27 26 26
22 23 24 25 27 29 31 33 34 35 35 35 35 35 35 34 34 34 34 33 33 32 32 31 31 30 30 29 29 28 28 28 28 28 28 28 28 28 28 28 28 27 27 26 25 25 25 26 26 25 26 26 26 26 26 25 26 26 25 25 25 25 24 23 23 24 25 26 27 26 25 23 23 23 23 25 27 27 27 27 27 28 29 28 27
23 24 26 28 30 32 33 35 36 37 37 37 37 36 36 35 34 34 34 34 33 33 32 31 31 30 30 29 29 28 28 27 27 27 27 27 27 28 28 28 28 28 27 27 26 26 26 26 26 26 26 27 27 27 27 27 27 27 27 27 28 27 27 26 26 26 27 27 27 26 25 23 22 22 21 22 24 24 23 25 27 27 28 29 30
24 26 28 30 32 34 35 37 38 38 39 39 38 37 36 36 35 34 34 33 33 33 32 32 31 30 30 29 28 28 27 27 27 27 27 27 27 27 28 28 29 29 28 28 27 27 27 27 27 27 26 27 27 27 28 28 28 28 28 28 29 29 29 29 29 28 29 29 29 27 26 24 22 22 21 21 21 20 19 21 23 24 26 29 30
26 27 29 31 33 36 37 39 40 40 40 39 39 38 36 35 35 34 33 33 32 32 32 31 31 30 29 28 28 27 26 26 26 26 26 26 27 28 28 29 29 29 29 29 29 28 28 28 27 27 27 27 27 27 27 27 27 29 28 28 29 29 30 30 30 30 31 31 31 30 29 26 23 22 23 21 21 21 20 19 21 22 23 26 26
27 28 30 33 35 37 39 40 41 41 41 40 38 37 36 35 34 34 33 32 31 31 31 30 30 29 29 28 27 26 25 25 24 24 24 24 25 27 28 29 29 30 30 30 30 30 30 29 29 28 28 28 28 28 27 26 26 27 27 27 28 28 30 31 31 31 31 32 32 31 31 30 26 24 24 23 22 23 22 21 21 21 21 23 23
27 29 31 34 36 38 40 41 41 41 40 39 37 36 35 34 33 33 32 31 31 30 30 29 29 29 28 28 27 26 25 24 23 23 22 22 23 25 27 29 29 30 30 31 32 32 31 31 31 30 30 30 30 29 29 27 27 27 27 26 26 26 26 28 30 30 30 31 32 31 31 32 30 27 26 25 24 24 23 23 23 22 22 22 22
28 31 33 35 37 39 41 40 40 39 37 37 36 35 34 33 32 32 31 30 30 29 29 28 28 28 27 27 26 25 24 23 23 22 22 21 22 23 26 28 29 29 30 31 32 33 33 33 33 33 32 31 31 31 31 30 29 28 28 27 27 25 24 24 26 28 29 30 32 32 31 31 31 30 28 26 26 26 25 24 24 24 24 23 22
30 32 34 37 39 39 39 38 37 36 35 35 34 33 33 32 31 31 30 29 29 28 28 27 27 26 27 27 26 25 24 24 23 22 22 21 21 22 25 27 28 28 29 30 31 32 33 33 34 34 33 33 32 32 32 31 30 30 29 29 28 28 26 25 24 24 26 28 31 33 32 30 30 30 27 26 27 27 27 27 26 26 26 25 24
31 34 36 38 38 38 37 36 35 34 33 33 32 32 31 31 30 30 29 28 28 27 26 26 25 25 25 26 26 25 23 23 23 22 23 22 21 23 26 28 28 28 29 30 31 32 32 33 34 34 34 33 33 33 32 31 30 30 30 30 29 29 29 29 28 26 25 25 28 31 31 29 29 30 28 26 26 26 26 27 27 27 27 27 27
33 36 37 37 36 35 34 33 33 32 31 31 30 30 29 29 29 29 28 27 27 26 26 25 25 24 25 25 25 24 23 23 24 23 23 23 22 24 27 28 29 30 30 30 30 31 32 32 33 33 33 33 32 31 30 29 28 29 31 30 29 29 31 31 30 29 28 27 27 29 29 27 26 28 27 25 25 26 25 26 27 28 29 29 28
34 36 36 34 33 32 32 32 31 31 30 29 29 28 28 28 28 28 28 27 26 26 25 25 25 24 24 24 25 25 23 23 23 23 23 23 23 24 27 28 30 31 31 31 31 31 31 31 32 33 33 33 31 29 27 26 26 28 31 32 31 31 32 32 30 29 29 28 28 28 29 28 26 26 25 23 24 25 25 26 27 27 28 30 30
35 35 33 32 31 30 30 30 30 29 29 28 28 27 27 27 27 27 28 27 26 26 25 25 24 24 24 24 25 25 24 23 23 23 23 22 22 24 27 28 29 31 31 31 31 31 31 31 31 32 33 33 32 29 25 23 25 29 32 34 34 33 33 32 31 30 30 29 30 30 30 30 29 29 29 28 27 26 26 28 28 25 25 29 31
34 33 31 29 29 28 28 29 29 28 28 28 27 27 26 27 27 27 27 27 26 26 26 26 25 24 24 24 24 25 25 24 23 23 22 21 21 23 25 27 28 30 30 31 31 31 31 31 31 32 34 33 31 28 24 23 26 31 34 35 35 36 35 33 32 32 32 31 32 33 33 32 31 30 30 30 29 27 27 28 28 25 25 28 30
32 30 29 27 27 26 27 27 28 27 27 27 27 26 26 26 26 26 26 27 26 26 26 26 25 24 24 24 24 25 25 24 23 23 22 21 20 20 22 25 27 28 29 30 29 29 30 31 32 32 32 30 28 27 27 27 29 32 32 32 34 36 36 35 34 34 34 34 34 35 36 35 32 32 31 30 30 28 28 28 27 24 26 29 29
30 28 27 26 25 25 26 27 27 26 27 27 26 25 26 26 26 26 26 26 26 26 25 26 26 25 24 24 24 24 25 25 24 23 22 20 18 17 19 22 25 26 27 27 27 28 29 31 33 33 31 30 30 30 30 29 29 30 30 30 32 34 34 33 34 33 33 33 33 36 39 38 34 33 32 32 31 30 29 28 27 24 25 28 29
29 27 26 24 24 24 25 26 26 26 26 26 26 25 25 25 25 26 26 26 26 26 25 26 26 25 24 24 24 24 24 25 25 22 20 18 15 14 16 19 22 24 26 26 26 27 27 29 33 34 32 31 31 30 30 30 29 30 30 30 31 32 32 33 34 33 33 33 33 37 40 40 37 35 34 33 32 32 31 30 28 26 26 27 29
28 26 25 23 23 24 24 25 26 25 25 26 26 24 24 24 25 25 26 26 26 26 25 26 26 26 25 24 24 24 24 25 25 22 19 16 14 13 15 17 20 23 26 25 25 25 27 30 33 32 30 30 31 31 31 32 31 30 30 30 30 31 31 32 33 32 33 34 36 39 41 41 39 37 35 34 33 32 31 30 28 27 27 28 29
27 26 24 23 22 23 24 24 25 25 25 25 25 25 24 24 24 24 25 26 26 26 26 26 26 27 26 25 24 24 24 25 24 21 18 17 17 17 16 17 19 21 23 24 26 28 31 32 31 31 31 32 33 33 32 31 30 29 30 30 31 31 31 32 33 34 35 38 40 42 42 41 40 38 36 34 32 29 29 28 27 26 26 28 29
27 25 23 23 22 22 23 24 24 25 25 25 25 24 24 24 23 23 24 25 26 26 26 26 27 27 27 27 26 25 25 25 23 20 20 21 21 20 20 20 19 20 23 27 30 31 32 32 31 32 32 32 32 32 31 30 30 30 31 32 32 33 34 35 36 37 38 39 40 41 41 39 37 36 34 31 29 29 30 30 30 30 27 27 28
26 24 23 22 22 22 23 23 24 24 24 25 25 24 24 25 24 23 23 24 25 26 26 26 27 27 28 28 28 27 26 26 24 23 24 24 23 24 24 21 21 24 27 30 31 31 30 30 30 31 32 32 33 33 33 33 33 32 32 32 32 33 34 35 35 35 36 37 37 37 38 36 34 32 30 28 28 30 33 34 34 33 29 26 27
26 24 23 22 21 22 23 23 23 24 24 24 24 24 24 25 24 23 23 24 25 25 26 26 26 26 27 28 28 28 27 27 27 27 26 26 27 28 26 24 26 29 30 31 31 29 28 29 30 33 36 36 36 36 35 35 33 32 32 31 31 32 32 31 31 31 32 32 32 32 33 33 31 30 29 30 32 34 36 36 36 35 31 27 26
25 24 23 22 21 21 23 23 23 23 23 23 24 24 24 24 24 24 23 24 25 25 25 25 25 26 27 27 28 29 29 29 29 29 28 28 29 29 27 28 30 31 31 31 31 30 32 34 36 38 38 37 35 34 32 32 31 31 31 30 29 29 29 28 28 28 29 30 30 31 33 33 33 33 31 30 32 34 34 34 35 35 33 29 29
25 24 23 22 21 21 23 24 24 24 23 23 23 23 23 23 24 23 22 23 25 25 25 25 25 25 27 28 29 30 30 30 30 29 28 28 28 28 29 30 30 31 30 30 31 34 36 38 38 37 36 36 35 33 31 30 31 31 31 30 29 28 28 28 27 28 29 30 32 33 33 32 33 33 31 31 33 31 28 26 28 30 29 28 30
25 24 23 22 21 22 23 24 24 24 24 23 23 23 23 23 23 22 20 21 23 25 25 25 25 25 26 27 27 28 30 31 30 27 25 25 26 27 28 28 28 28 28 29 34 38 38 38 37 36 36 35 35 35 34 32 32 31 31 31 30 30 29 28 27 27 28 29 31 33 33 32 32 31 30 31 31 29 26 24 24 26 28 29 30
25 24 23 22 22 22 23 24 24 24 24 24 24 23 22 22 23 22 21 20 21 22 23 23 22 21 22 22 23 26 29 31 28 25 24 25 25 26 25 25 25 25 26 31 36 37 36 36 36 35 35 35 35 35 34 34 33 33 32 31 31 30 30 29 27 26 26 26 28 30 31 32 32 32 31 29 28 27 27 27 26 27 29 30 30
25 24 22 22 22 23 23 24 24 24 24 24 24 24 22 21 20 20 21 21 20 19 19 19 18 16 18 21 25 26 27 27 26 25 25 26 26 25 23 23 24 25 28 33 35 34 33 34 33 32 32 32 32 33 33 33 33 33 33 32 31 30 29 29 28 27 27 28 29 30 30 30 30 30 30 30 29 29 29 28 28 29 29 29 30
25 23 22 22 22 23 24 24 23 24 24 23 24 24 24 23 21 19 18 19 19 18 17 17 17 16 17 20 24 26 26 25 25 25 26 26 25 23 22 23 25 27 29 31 31 30 30 30 30 30 30 30 30 31 32 32 32 32 32 32 32 31 30 29 28 27 28 28 28 29 31 31 30 29 29 29 30 30 30 31 32 32 32 30 31
25 24 22 22 22 23 23 23 23 23 23 23 23 23 23 24 23 21 19 17 17 16 16 16 16 17 18 20 22 24 24 24 24 24 25 25 24 23 23 25 26 26 27 28 28 27 27 27 27 28 28 29 29 30 30 30 31 31 31 31 32 31 30 29 27 27 26 26 26 27 28 30 32 32 32 32 33 33 34 34 34 32 31 31 31
25 24 22 22 22 23 23 23 23 23 22 22 22 22 22 23 23 23 22 20 18 16 14 14 16 17 19 20 21 23 23 23 23 23 24 24 24 23 25 26 24 23 24 26 26 26 26 26 26 26 26 27 28 29 30 30 30 30 31 31 31 31 30 29 28 27 26 25 25 26 26 27 28 29 30 31 31 32 32 32 31 30 30 31 31
24 23 22 22 22 22 22 23 23 22 22 21 21 21 21 21 21 21 22 22 22 20 18 16 16 17 19 20 22 23 23 23 22 22 22 23 23 24 26 26 24 23 22 23 24 25 25 26 26 26 26 26 27 28 29 30 29 30 30 31 31 31 31 30 28 27 26 25 25 25 26 26 26 25 25 26 27 27 28 29 29 30 30 30 30
24 22 22 22 22 22 22 22 22 21 21 20 20 20 20 20 19 19 19 20 21 21 21 20 18 18 18 20 22 23 22 22 21 21 21 22 22 24 25 26 26 25 24 23 24 24 24 25 26 26 26 26 27 27 28 29 30 30 30 30 30 31 30 29 28 27 26 26 26 25 25 25 25 24 24 24 25 25 25 25 26 27 27 28 29
23 22 21 21 22 22 22 21 21 20 20 20 19 19 19 18 18 18 18 18 19 20 20 21 21 20 20 20 22 24 23 22 21 21 20 20 21 22 23 24 25 25 25 24 24 24 24 24 25 26 26 27 27 28 28 29 30 30 30 29 29 29 29 28 27 26 26 26 26 26 25 25 25 23 22 23 23 23 22 22 22 23 24 26 29
22 21 21 21 22 22 22 20 20 19 19 19 18 18 18 17 16 17 17 17 18 19 20 21 22 23 23 23 24 25 25 24 23 21 20 20 21 21 22 23 23 24 25 24 24 24 24 24 24 25 26 26 27 28 29 29 29 30 31 30 29 28 27 27 26 25 25 25 25 25 25 24 24 22 21 21 21 20 20 19 19 20 22 24 26
21 21 21 21 22 21 20 19 19 19 18 18 18 18 17 16 15 15 16 16 17 18 20 21 22 23 24 26 26 27 28 27 26 25 23 23 22 23 23 23 23 23 24 24 24 24 24 24 24 24 25 25 26 27 28 29 29 30 30 31 30 29 27 26 25 24 24 24 24 24 23 23 22 21 20 20 19 18 18 18 18 19 20 21 23
21 21 21 22 21 21 19 19 18 18 17 17 17 17 16 15 14 15 15 16 18 18 20 22 23 23 25 26 28 29 30 29 28 27 27 26 25 24 24 24 23 23 23 23 24 24 24 24 24 24 24 25 26 27 28 29 29 30 30 31 31 31 29 27 26 24 24 23 23 22 22 21 20 20 19 18 17 17 17 17 17 18 19 20 21
21 21 21 21 21 20 19 19 18 17 17 17 17 16 15 14 14 15 15 17 18 20 21 23 24 25 26 27 28 29 30 29 28 27 27 26 26 25 24 24 24 23 23 23 24 24 24 23 24 24 24 25 26 26 27 28 29 30 31 31 31 32 31 28 25 23 23 22 22 21 20 19 18 18 17 16 15 15 15 16 17 17 17 18 19
21 21 20 20 20 20 19 18 17 17 17 17 16 15 15 15 14 15 16 18 19 21 23 25 26 26 27 28 29 29 29 28 28 27 26 26 26 25 24 23 23 23 23 23 23 24 24 24 23 23 24 24 25 26 27 28 29 30 31 31 31 32 32 29 25 23 22 21 20 19 18 17 16 15 15 14 13 13 14 15 15 15 16 17 17
21 21 20 20 20 20 19 18 17 17 17 16 15 15 15 15 15 16 18 19 21 23 25 27 28 29 29 29 29 30 29 28 27 26 25 25 25 25 24 23 22 22 22 22 22 23 23 23 23 23 22 23 24 25 25 26 28 30 30 30 30 31 32 30 27 23 21 19 18 16 15 14 14 13 12 12 12 12 13 13 14 14 14 14 15
21 21 20 20 20 20 19 19 18 17 17 16 16 16 16 16 17 18 20 21 23 25 27 29 30 31 31 31 30 30 30 28 27 25 24 24 24 24 24 23 22 21 21 21 21 21 22 22 22 22 21 21 21 22 23 24 25 27 28 28 29 30 31 31 29 25 22 18 16 14 13 12 11 11 11 11 11 11 11 11 12 12 11 11 13
21 21 20 20 20 20 19 19 18 18 18 18 18 17 17 18 19 20 22 24 25 27 29 31 31 32 33 33 32 31 30 28 26 25 24 23 23 23 23 23 22 21 21 21 21 21 21 21 21 21 21 20 20 21 22 22 23 24 25 25 26 28 29 30 30 27 23 19 16 13 12 11 10 10 10 10 10 10 10 9 9 10 9 9 10
21 21 21 20 20 20 20 19 19 19 19 19 19 19 19 20 21 22 24 26 27 29 31 32 32 33 33 33 33 32 30 28 26 24 23 22 22 23 23 22 21 21 20 20 21 20 20 20 20 21 20 20 20 20 21 21 21 22 22 22 23 25 26 28 28 27 25 20 15 12 11 10 10 9 9 9 8 8 7 7 6 6 6 6 7
21 21 21 21 20 20 20 20 20 20 20 21 21 21 21 22 23 25 26 28 29 31 33 33 33 33 33 33 33 31 30 28 26 24 23 22 21 22 22 21 21 20 20 19 20 20 19 19 19 19 20 20 19 20 20 20 20 21 21 20 21 23 25 25 25 25 25 23 19 15 12 11 10 9 8 7 6 5 4 3 1 1 3 5 8
21 21 21 21 21 21 21 20 21 21 22 22 23 23 24 25 26 27 28 30 31 32 33 33 33 34 33 33 32 30 28 27 25 23 22 21 21 21 21 21 20 20 19 18 19 19 19 18 18 18 18 18 18 19 19 19 19 20 19 19 19 21 23 23 22 22 23 24 23 21 18 16 14 12 11 9 8 7 6 6 6 6 7 9 11
21 21 21 21 21 21 21 21 22 22 23 24 25 25 26 27 28 29 30 31 32 33 33 33 33 33 33 32 31 29 27 26 25 23 21 21 20 20 21 20 20 19 19 18 18 18 18 18 18 17 17 18 18 18 18 18 18 19 18 18 19 20 20 20 20 20 20 21 22 21 20 19 17 15 14 13 12 11 11 11 11 11 11 12 13
21 21 21 21 21 21 21 21 22 23 24 25 26 27 27 28 29 30 31 32 32 33 33 33 33 33 32 30 29 28 26 25 23 22 21 20 19 20 20 20 19 19 18 18 17 17 17 17 17 17 17 16 16 16 17 17 17 18 17 17 18 18 18 17 17 17 17 18 19 18 18 16 15 13 13 12 11 10 10 10 10 11 11 12 12
21 21 21 21 21 21 21 22 22 23 24 25 26 27 28 29 30 30 31 32 32 32 32 32 32 31 30 28 27 26 25 24 22 21 20 19 19 19 19 19 19 18 18 17 16 16 16 16 16 16 16 15 15 15 15 15 16 16 16 15 16 16 16 16 16 15 15 16 16 16 15 14 12 11 11 10 9 8 8 9 9 9 10 10 11
Wind_Direction
345 344 344 344 344 343 343 343 343 342 341 340 338 337 336 334 333 332 332 331 330 329 328 328 328 328 327 327 326 325 323 322 321 320 320 320 319 319 319 318 318 318 319 320 320 320 320 320 321 322 322 322 322 321 319 316 310 305 302 299 295 297 301 303 302 295 283 274 275 279 282 284 286 288 289 290 290 292 295 296 298 299 300 307 312
340 339 339 339 339 339 340 340 340 339 339 338 337 336 335 334 332 331 330 329 329 328 327 326 326 325 325 325 325 324 323 322 321 319 318 317 316 316 316 316 316 315 315 316 316 316 317 317 317 316 315 317 319 318 319 319 318 314 310 306 301 299 302 305 306 306 300 288 280 278 276 277 280 283 283 284 285 285 287 289 290 291 292 294 299
337 336 336 335 336 337 337 337 337 336 336 335 335 335 334 333 332 331 330 329 328 327 326 326 325 324 324 323 323 323 322 322 321 320 318 317 315 315 315 315 315 314 314 314 314 314 314 314 314 314 313 313 313 314 315 315 316 316 315 313 310 305 304 306 308 309 308 303 295 291 286 280 278 280 279 279 281 282 280 281 283 284 286 287 287
334 333 334 334 335 335 335 335 335 334 334 333 332 332 331 331 330 329 329 328 327 326 325 325 324 323 323 322 322 321 321 321 320 320 319 318 316 315 314 314 314 314 314 315 315 314 313 312 313 313 312 311 311 310 311 311 311 311 312 313 312 310 308 308 309 311 310 308 302 299 299 294 287 284 282 278 277 278 277 276 277 276 276 278 279
330 330 331 332 333 333 333 333 333 333 332 331 330 329 328 328 327 326 326 326 325 325 325 324 323 322 322 322 322 321 321 320 319 319 318 317 316 315 314 313 313 313 313 314 315 314 314 313 314 314 313 311 310 309 308 309 309 309 309 309 310 309 308 307 308 310 311 311 308 302 301 300 294 290 289 285 278 274 273 273 274 275 274 272 272
326 327 328 329 331 331 331 331 331 331 330 329 328 327 327 325 324 324 323 323 323 323 323 323 322 322 321 321 321 321 321 320 319 318 317 316 315 314 313 312 312 311 312 313 314 314 314 314 314 315 315 313 311 310 309 308 307 307 307 307 307 307 307 306 306 307 309 311 311 307 303 302 300 296 293 292 287 280 275 271 270 272 273 273 272
322 324 325 327 328 328 329 329 329 328 328 327 326 325 324 323 322 321 320 320 320 320 320 320 320 321 321 320 320 320 319 319 319 318 317 315 314 312 312 311 311 311 311 312 313 314 314 315 315 315 315 315 314 312 311 310 308 307 307 307 306 305 304 303 304 305 306 308 310 309 306 304 305 304 299 295 291 287 283 279 272 268 269 270 269
318 320 321 323 325 326 327 326 326 326 325 324 324 323 322 320 319 319 318 318 318 318 318 318 318 319 319 319 319 319 318 318 317 317 316 316 314 313 312 311 310 310 311 312 312 312 313 313 314 315 315 315 315 314 314 314 311 308 307 307 306 304 303 302 302 302 304 305 307 308 307 304 304 305 304 302 297 292 290 290 283 275 271 269 267
314 316 319 321 323 324 324 324 323 323 322 321 321 320 319 318 318 317 317 317 316 316 316 316 316 316 317 317 317 318 318 317 317 317 317 317 315 314 313 311 310 310 311 311 311 311 311 311 312 313 314 314 314 313 313 313 312 310 308 307 306 304 303 302 302 302 303 303 304 306 307 305 305 306 305 308 311 305 298 294 290 283 276 271 267
311 313 317 319 320 321 321 321 321 320 320 319 319 318 318 317 316 316 316 316 315 315 314 314 315 314 314 315 316 317 317 316 316 317 317 317 315 313 312 311 311 311 311 311 310 309 310 309 309 310 310 310 310 310 310 310 309 308 307 307 306 305 303 302 301 302 302 302 301 303 304 303 305 308 306 306 310 309 305 301 296 292 286 278 272
309 313 316 318 318 319 318 318 318 318 318 318 317 318 317 316 316 315 315 315 314 314 313 313 313 313 313 314 314 316 317 317 316 316 315 315 313 312 310 309 310 312 312 312 311 310 310 309 309 308 308 308 308 307 307 307 306 305 304 303 302 301 300 299 299 299 300 299 298 299 301 301 301 304 304 303 302 302 304 306 305 302 299 292 286
309 312 315 316 316 317 317 317 317 317 317 317 317 317 317 316 316 315 314 314 313 313 313 312 313 313 312 313 313 315 317 317 317 316 315 313 313 311 309 308 310 311 312 312 311 311 311 310 310 309 308 309 308 307 307 306 305 303 301 299 297 296 295 294 293 294 295 296 295 294 296 298 299 300 302 303 300 296 296 301 305 306 304 298 294
309 312 314 315 316 317 317 316 317 316 317 317 317 317 317 316 316 315 314 314 314 313 313 312 313 312 312 312 313 315 317 317 316 317 316 315 315 312 308 308 310 311 311 311 311 312 312 311 310 310 310 309 308 308 307 307 306 304 301 298 296 294 293 291 289 289 289 290 291 291 292 294 295 294 297 302 302 297 294 295 299 302 302 298 294
310 312 313 315 316 317 316 316 316 316 317 317 317 318 317 317 316 315 315 314 314 313 313 312 312 313 313 313 313 315 318 317 317 318 318 318 318 314 310 310 311 312 311 312 312 312 312 312 311 310 310 310 310 311 312 311 310 307 303 301 300 297 295 292 291 290 288 286 286 286 288 290 291 291 292 297 300 300 296 291 291 295 296 294 292
310 311 313 315 316 316 316 316 316 316 318 318 318 318 317 317 317 315 315 315 315 314 314 314 314 314 314 314 314 315 318 319 319 320 320 321 321 316 313 314 314 314 314 314 314 314 313 313 312 311 311 311 311 314 316 316 315 309 304 302 301 299 295 293 294 295 293 290 287 286 286 286 288 291 294 296 296 297 295 289 285 286 289 289 287
309 310 313 315 316 315 315 315 316 317 318 318 318 318 318 317 317 316 315 315 316 316 315 315 315 315 316 317 315 315 318 320 320 320 322 323 322 318 316 317 317 316 316 317 316 315 314 313 312 311 311 311 312 315 317 318 314 308 303 301 300 298 296 295 296 295 294 292 290 287 284 281 279 281 283 285 285 287 290 287 281 279 284 287 285
308 310 314 315 315 315 315 314 315 316 317 318 318 319 318 318 318 317 317 316 317 317 316 316 317 318 318 319 318 316 318 320 320 321 324 326 324 321 319 319 317 316 317 318 317 315 314 314 314 313 313 313 315 319 320 318 311 305 303 303 303 301 298 297 297 295 292 291 288 286 284 281 279 278 277 276 276 278 283 284 282 282 285 284 284
308 311 313 314 315 315 314 313 314 315 316 317 319 320 319 319 319 318 317 317 317 318 318 317 319 320 320 321 321 319 318 320 321 322 326 329 328 323 320 318 317 317 318 320 320 319 317 316 316 316 316 317 319 320 318 313 307 306 307 309 308 305 303 303 303 299 297 295 292 289 286 283 282 281 278 276 276 276 276 278 281 284 283 279 282
307 311 313 314 315 314 312 312 313 314 315 316 318 320 319 319 319 318 317 317 317 319 319 318 318 321 322 322 322 320 318 319 322 325 328 332 329 322 319 317 316 318 322 323 322 319 316 314 314 315 317 318 317 313 312 310 309 309 310 309 307 305 308 311 310 306 303 301 299 295 291 288 288 285 282 281 279 276 273 273 275 278 277 274 278
307 309 311 313 314 312 311 311 312 313 314 315 317 319 318 318 318 317 317 317 317 318 319 318 319 321 322 322 322 321 320 320 323 328 332 332 328 321 318 318 319 322 325 322 317 314 313 313 313 314 315 314 312 312 314 313 309 306 306 303 300 301 306 309 306 303 301 300 298 295 293 293 293 290 288 287 284 281 278 273 270 269 271 271 273
306 308 311 313 312 310 309 310 311 312 313 313 315 317 317 317 317 317 317 317 317 319 320 319 319 320 322 322 322 323 323 321 324 330 334 329 326 326 322 323 325 324 320 316 313 312 312 311 311 313 314 314 314 314 313 309 305 303 300 297 296 297 300 299 297 296 296 294 292 291 291 292 292 291 290 288 287 286 284 280 274 268 264 265 267
303 306 310 311 309 308 308 308 309 310 311 312 313 315 316 316 316 317 317 317 317 319 319 319 318 319 320 321 322 323 323 322 324 331 332 325 327 333 331 328 326 321 317 315 313 311 309 309 311 315 317 317 314 311 308 306 304 301 297 295 296 297 297 296 294 293 291 289 289 288 287 289 291 293 292 289 289 290 289 286 281 274 265 260 261
301 304 308 308 307 306 305 306 307 308 309 310 312 314 314 314 315 316 316 316 317 317 319 319 319 319 319 320 321 322 322 322 325 329 329 328 333 338 337 333 328 323 316 312 309 309 312 315 318 319 318 314 310 307 306 305 303 299 297 297 297 297 296 292 289 287 285 284 285 287 289 291 294 294 293 291 290 290 289 286 282 277 269 261 257
299 303 305 305 304 303 303 304 305 305 307 308 309 311 312 312 314 315 314 315 316 317 318 320 319 319 320 320 321 323 322 321 325 332 336 337 339 340 340 337 330 322 314 311 314 318 320 320 319 316 312 309 307 307 305 304 303 302 301 300 298 296 294 289 287 286 285 284 284 286 288 290 292 292 292 292 289 285 282 280 278 276 272 264 258
298 301 302 302 302 301 301 302 302 302 304 306 307 309 310 310 312 313 313 314 315 316 317 319 319 320 320 320 321 322 322 322 331 342 344 341 340 342 343 336 325 320 319 321 324 324 321 317 314 311 310 310 310 309 307 305 306 306 304 302 300 298 296 294 293 293 292 290 289 290 290 290 290 292 293 292 286 281 279 279 278 277 273 265 258
297 299 299 300 299 299 299 298 299 300 302 303 305 306 307 308 309 311 313 313 313 314 315 317 318 319 319 319 319 321 324 330 338 345 344 342 344 346 341 328 321 324 327 328 328 323 315 312 311 310 311 312 311 309 307 307 308 308 307 306 306 304 303 301 299 297 295 292 291 290 288 287 287 286 283 279 276 275 277 279 280 279 275 267 259
295 296 297 299 298 297 296 295 296 297 299 300 302 303 304 306 307 310 312 311 311 312 314 316 318 318 317 318 321 325 330 333 337 340 343 344 344 339 329 323 325 330 333 331 325 316 310 310 311 310 311 311 310 309 307 307 309 309 309 309 308 306 305 302 298 294 291 288 288 288 288 288 289 289 288 286 282 280 280 280 282 282 280 273 265
293 294 295 297 297 295 294 293 294 296 297 298 299 300 301 303 304 307 311 310 309 311 312 314 316 317 319 323 328 330 328 327 331 339 341 339 334 325 321 325 330 332 331 325 314 307 308 312 313 312 313 314 313 312 311 310 309 309 308 308 306 304 302 299 297 295 294 294 294 295 296 297 296 294 292 289 288 289 291 290 289 287 286 280 270
291 293 294 296 296 294 292 293 294 295 296 296 297 298 299 301 302 305 307 307 307 310 312 314 318 322 326 329 328 322 316 319 328 335 331 325 322 318 319 326 328 327 324 316 307 308 313 316 316 317 318 318 317 316 314 312 310 309 308 308 306 305 304 302 298 296 298 300 300 298 298 299 298 294 288 284 285 289 293 292 288 286 287 286 276
290 292 294 295 295 292 291 292 293 294 295 296 296 296 297 298 300 303 305 305 306 308 311 314 319 322 321 316 309 306 308 315 322 323 317 316 316 315 318 324 325 322 316 309 307 312 318 318 318 320 321 319 319 318 316 314 313 311 310 309 307 306 306 304 300 296 293 294 294 295 296 297 297 295 290 288 289 288 286 284 282 281 284 286 280
289 292 294 294 292 291 291 291 292 293 294 295 295 295 295 294 295 299 302 303 303 304 305 307 308 307 301 298 298 301 306 311 314 314 313 315 315 317 321 322 318 314 310 309 312 318 320 318 319 320 320 320 321 320 318 317 316 314 312 310 308 308 307 306 304 299 291 286 285 286 288 293 296 295 290 287 287 286 283 282 281 280 281 282 281
289 291 292 291 290 290 290 291 292 292 292 294 295 295 296 295 294 295 297 299 300 301 302 303 301 299 297 298 300 304 307 310 313 314 314 314 317 321 321 316 313 312 311 312 317 320 318 318 320 321 322 323 323 322 321 320 318 316 314 312 310 309 309 308 307 303 297 293 290 286 285 286 289 289 288 285 284 282 280 278 278 279 279 278 277
289 291 291 289 288 288 288 290 291 291 293 294 294 294 295 297 298 298 296 295 296 298 300 301 301 302 302 303 304 306 309 312 314 314 313 315 319 320 315 313 316 317 315 316 319 320 319 321 322 323 325 326 325 325 324 323 321 319 317 314 312 311 310 309 308 305 300 298 296 291 288 285 282 281 281 281 281 280 279 279 279 278 277 276 274
289 290 289 287 286 286 287 288 289 291 293 294 293 293 294 297 299 302 302 300 299 298 299 302 305 307 308 307 308 309 311 313 315 315 315 317 318 316 312 314 318 317 314 317 321 324 325 325 324 325 326 326 327 327 327 327 326 323 319 316 313 311 310 310 309 307 304 301 297 294 292 290 287 284 282 281 280 279 277 277 276 275 273 274 274
288 288 288 286 286 286 286 286 288 290 292 292 292 293 294 296 298 301 304 307 308 307 308 310 313 315 315 314 312 312 313 315 317 317 317 317 316 313 313 315 318 317 316 320 324 326 329 330 329 329 329 328 329 331 331 331 331 327 323 320 317 314 313 312 310 308 307 304 300 297 295 294 291 289 287 284 281 279 275 272 271 270 269 270 271
286 287 287 286 285 285 285 286 288 290 291 291 291 292 293 294 297 299 303 307 310 313 316 317 318 319 320 318 316 314 315 317 318 318 318 318 317 316 317 319 321 322 324 326 327 328 330 331 331 331 331 331 332 334 334 334 334 332 329 325 320 317 315 313 311 309 307 304 302 300 297 295 292 291 289 286 282 279 276 273 270 269 268 269 270
285 286 286 284 283 283 284 287 288 289 289 290 290 290 291 293 295 299 303 307 311 316 319 321 322 322 322 320 318 317 317 319 321 320 319 318 318 319 321 322 323 325 326 327 328 329 331 332 332 331 332 333 334 335 336 337 337 336 334 330 325 321 317 314 312 309 305 302 301 300 298 294 292 291 290 286 283 281 279 277 274 272 271 272 272
284 285 284 282 281 282 285 287 287 287 288 289 288 288 290 292 294 298 302 308 314 318 321 323 325 327 326 325 323 320 319 320 322 321 319 320 322 323 324 324 324 325 326 326 328 330 331 332 333 332 332 333 335 336 338 338 338 339 338 335 330 325 320 315 311 307 303 300 298 297 296 294 292 292 291 288 287 286 285 284 282 279 276 275 273
284 284 282 280 281 283 284 285 285 285 286 287 286 286 288 290 293 298 302 308 314 319 322 324 327 330 330 328 326 324 322 322 324 325 324 325 326 326 326 325 324 324 325 325 327 329 331 332 333 332 333 334 335 337 338 339 339 340 340 339 336 332 327 321 314 309 304 301 298 296 294 293 291 290 289 288 289 290 291 291 289 286 282 280 276
283 281 279 279 281 282 282 282 283 284 284 283 282 283 286 288 291 296 302 308 313 319 322 324 327 330 331 329 327 326 323 323 324 325 325 325 326 326 326 325 324 325 325 325 326 327 330 332 332 333 334 336 337 337 338 339 339 340 341 341 340 339 335 329 321 314 308 303 300 297 295 293 291 289 288 288 291 294 294 293 291 288 285 282 277
279 278 278 278 279 279 279 280 283 282 279 278 278 279 281 284 289 295 300 306 312 317 319 322 326 328 329 328 327 324 322 321 321 321 321 322 323 323 324 324 324 324 325 325 325 326 328 331 332 333 335 337 337 337 338 339 340 340 340 341 343 343 341 335 327 319 311 306 301 298 295 294 293 292 291 291 293 295 295 294 291 289 286 281 277
276 275 276 275 275 276 277 280 281 277 274 275 276 276 277 281 286 293 299 304 310 314 316 319 323 325 325 325 324 321 319 318 317 316 316 318 319 320 321 322 322 323 324 325 324 324 326 329 331 333 336 337 337 338 339 340 341 340 338 340 344 346 344 339 334 325 316 309 304 301 298 295 293 293 295 297 298 298 297 294 290 288 285 281 276
273 273 273 272 272 274 276 277 276 274 273 273 272 271 275 281 286 291 297 302 307 311 314 316 319 321 322 322 321 319 317 315 313 312 312 313 315 317 319 320 321 322 322 323 323 323 324 326 329 332 335 336 337 338 339 341 342 339 337 340 345 347 346 345 342 335 324 314 307 303 299 297 296 296 298 302 302 301 299 295 289 285 282 278 273
270 271 271 271 271 273 274 275 273 271 269 268 268 270 274 280 285 290 296 300 305 308 311 314 316 317 318 320 319 317 315 313 311 310 310 310 312 315 317 318 319 320 321 321 321 322 322 324 327 330 333 335 336 337 339 342 343 339 336 340 346 348 349 350 350 345 336 325 317 311 306 303 303 305 306 308 308 304 300 296 288 281 277 272 265
270 269 269 270 270 271 272 272 271 268 266 265 267 271 275 279 284 290 294 299 303 307 309 311 313 314 316 317 317 315 314 312 310 309 308 308 310 313 315 317 318 319 320 321 320 320 322 323 324 328 332 334 336 338 339 342 343 339 338 343 348 349 351 354 355 354 349 339 328 323 319 315 315 317 317 316 314 308 302 296 286 277 271 261 248
269 268 268 269 269 270 271 270 267 265 264 265 268 271 275 280 285 289 293 297 301 304 306 308 311 312 314 315 314 313 312 311 309 308 307 306 307 309 312 315 316 317 319 320 319 319 322 323 324 327 331 333 336 339 340 341 342 341 342 346 350 351 353 356 358 0 360 355 347 343 340 337 337 337 332 327 323 316 310 301 288 273 255 235 220
267 267 267 268 268 269 269 267 265 264 265 266 270 273 276 280 284 288 292 296 299 302 304 307 309 311 312 312 312 311 310 308 307 306 305 304 304 306 310 313 314 314 316 319 318 319 321 322 323 327 330 332 336 339 339 340 343 344 343 347 353 355 356 357 1 6 10 11 12 13 11 7 5 2 356 351 349 347 344 341 319 210 187 186 185
266 266 266 267 267 268 267 266 266 266 266 268 271 273 277 280 284 288 292 295 298 300 303 305 307 309 309 309 309 309 308 306 305 304 303 302 302 303 307 310 312 312 314 317 318 318 320 321 323 325 328 331 335 338 339 341 344 344 343 348 357 359 357 357 1 8 14 17 21 27 30 30 31 34 37 41 47 56 69 84 100 117 136 151 158
266 266 266 266 267 268 269 268 267 267 268 270 272 274 278 282 285 289 292 294 296 299 302 304 306 307 307 307 308 307 305 304 304 302 301 300 299 300 303 307 310 310 311 314 317 317 318 320 322 325 327 330 334 337 338 340 342 342 343 351 359 0 359 359 2 10 17 21 23 28 32 34 37 44 52 58 64 74 85 97 108 120 133 144 149
267 267 266 267 267 268 268 268 268 269 270 272 274 277 280 283 286 289 292 294 296 299 302 304 305 305 306 306 306 305 304 303 303 301 299 298 297 297 300 304 307 308 308 310 314 316 317 319 322 324 326 328 332 335 336 339 340 341 346 353 358 358 359 2 4 9 19 25 26 28 31 34 37 43 53 61 69 79 93 105 116 127 139 147 148
268 268 269 269 269 269 269 269 270 272 273 275 278 280 283 285 287 290 292 294 297 300 302 303 303 304 304 304 304 303 303 303 302 300 299 297 295 296 298 301 305 307 306 306 310 313 315 317 320 322 323 326 330 333 336 338 339 341 346 353 355 355 358 3 5 9 17 25 29 30 32 35 39 46 56 65 74 84 98 110 120 130 139 143 143